SCP
2 2 1 1 2 2 3 4 4 3 2 2 2 1 1 1 1 1 1 1 1 1 1 1 1 1 1 1 1 1 1 1 1 1 1 1 1 1 1 1 1 1 1
2 2 1 1 2 2 3 3 4 3 3 2 2 2 1 1 1 1 2 2 2 1 2 2 2 2 2 2 1 1 1 1 1 1 1 1 1 1 1 2 2 2 2
2 1 1 1 1 2 2 3 3 3 3 2 2 2 2 2 2 2 2 2 2 2 2 2 2 2 2 2 2 1 1 1 1 1 1 1 1 1 1 2 2 2 3
1 1 1 1 1 1 1 2 2 3 3 3 2 3 3 3 3 3 3 3 3 3 3 3 3 3 3 3 2 2 1 1 1 1 1 1 1 1 2 2 2 3 3
1 1 1 1 1 1 1 2 2 2 2 3 3 3 3 3 3 3 3 3 3 3 3 3 3 3 3 3 3 2 2 1 2 2 2 2 2 2 2 2 3 3 3
1 1 1 1 1 1 1 2 2 3 3 2 3 3 3 3 3 3 3 3 3 3 3 3 3 3 3 3 3 3 2 2 2 3 3 2 2 2 2 3 3 3 3
1 1 2 2 2 2 2 2 2 3 3 2 3 3 3 3 3 2 3 3 3 3 3 3 2 2 2 2 3 3 2 2 2 3 3 3 2 2 2 2 2 3 3
1 1 2 2 2 2 2 2 2 2 2 2 3 3 3 3 3 2 2 3 3 3 3 3 3 2 2 2 2 2 2 2 2 3 4 4 3 3 3 3 3 3 3
1 1 1 2 2 2 2 2 2 2 2 2 2 3 3 4 3 3 3 3 3 3 3 3 3 2 2 2 2 2 2 2 2 3 3 4 4 4 4 4 4 4 4
1 2 2 2 2 2 2 2 2 2 2 2 2 2 3 4 4 4 4 4 4 4 4 3 3 2 3 3 2 2 2 2 2 2 3 3 4 4 4 5 5 6 6
2 2 3 3 3 3 3 3 4 4 3 2 2 2 3 4 4 5 5 4 5 5 5 4 3 3 3 3 3 2 2 2 3 3 3 3 4 4 4 5 5 6 6
3 3 3 4 3 4 4 4 6 7 5 3 2 2 3 4 5 6 5 5 5 5 5 5 4 4 4 4 3 3 3 3 3 3 3 3 4 4 4 4 4 5 5
4 4 4 4 4 4 4 4 5 6 4 2 2 3 4 5 6 7 7 6 5 5 5 5 5 5 5 4 4 4 4 4 4 4 3 3 3 4 4 5 5 4 5
4 4 4 4 4 4 3 3 4 4 3 3 4 4 5 6 7 8 7 7 6 5 5 5 5 5 5 5 4 5 5 5 5 4 3 3 3 3 4 4 5 5 6
4 4 5 5 5 4 3 3 4 5 5 6 7 7 7 7 8 8 8 7 7 6 6 5 5 4 4 4 4 4 5 5 5 4 3 3 3 3 4 4 4 5 6
4 5 5 5 5 4 4 4 5 7 8 10 11 10 9 9 9 8 7 8 8 7 7 6 5 4 3 3 3 3 4 5 5 4 3 3 2 3 3 3 2 3 5
5 5 6 6 5 4 4 4 6 8 10 11 13 12 10 11 10 8 8 10 11 10 9 8 6 5 4 3 3 3 4 5 6 5 4 3 2 2 3 2 2 3 4
6 6 7 7 6 4 3 4 4 6 8 11 13 12 11 12 12 9 9 12 12 11 9 7 6 4 3 3 2 2 3 5 7 6 4 3 2 3 3 3 2 3 4
6 7 7 7 6 4 3 3 3 4 5 8 10 11 11 12 12 10 9 10 10 9 7 5 4 4 3 2 1 2 3 6 7 6 4 3 2 3 3 3 4 4 5
5 6 6 6 5 4 3 3 3 3 3 4 6 8 9 11 10 8 6 6 7 7 6 6 6 5 4 3 1 1 4 6 7 6 3 2 2 2 3 4 5 4 4
4 5 4 4 4 4 3 4 4 3 3 3 3 5 6 7 7 5 4 4 5 5 6 6 7 7 6 4 2 1 3 5 5 4 2 1 1 1 1 3 4 3 2
4 4 4 4 4 4 4 3 3 3 3 3 3 4 4 4 4 4 4 4 5 5 5 6 6 6 7 5 2 1 1 3 4 2 1 1 1 0 0 1 1 1 1
3 3 3 3 3 3 3 3 2 3 3 3 3 3 4 3 3 3 4 5 5 6 6 6 5 5 6 6 3 1 1 1 2 2 1 1 0 0 0 0 0 0 1
3 3 3 3 3 3 3 2 2 3 3 3 3 3 3 3 3 3 4 5 6 7 8 7 6 6 6 5 3 2 2 1 2 2 1 1 1 1 1 1 1 1 1
4 3 3 3 3 3 3 3 3 3 3 3 2 2 2 2 2 3 4 5 6 6 7 6 6 6 5 3 2 2 2 2 2 2 2 2 2 2 2 2 2 2 2
4 4 4 3 3 3 3 3 3 3 3 3 3 2 2 2 2 2 3 4 4 5 5 4 5 5 4 2 1 2 2 2 2 2 3 3 3 3 3 3 2 2 2
Wind_Speed
7 7 6 5 5 6 5 5 5 5 4 3 3 3 2 2 2 2 2 2 2 2 2 2 2 2 1 1 2 2 3 2 2 2 2 2 3 2 2 3 2 3 3
8 7 7 7 6 6 6 6 6 5 5 3 2 2 2 2 1 1 1 2 2 2 3 2 2 2 1 1 2 2 2 2 1 2 2 2 3 3 3 2 3 2 2
8 9 8 8 7 7 6 5 5 5 5 5 4 3 3 3 2 2 2 2 2 2 2 2 2 2 2 2 2 2 3 2 1 1 3 2 1 0 2 2 2 2 2
8 8 9 8 8 7 6 6 5 5 4 5 4 4 3 3 2 2 1 2 2 2 2 2 2 2 2 2 3 2 2 3 2 1 1 2 3 3 1 2 2 2 2
7 8 8 8 7 7 6 6 6 5 5 5 5 5 4 3 2 2 2 2 2 3 3 3 2 2 2 2 3 2 3 2 2 2 1 2 2 3 3 2 1 1 2
7 7 7 8 7 7 6 6 6 5 5 5 5 5 4 4 3 3 2 3 2 2 3 3 3 3 3 3 3 3 2 2 3 2 2 2 2 2 3 3 2 2 1
7 7 8 8 8 7 7 6 6 6 6 6 5 5 5 5 5 4 3 3 2 2 2 2 3 3 3 3 3 3 3 3 2 3 2 2 2 2 3 3 3 3 2
6 7 8 8 8 7 7 7 6 6 5 5 4 4 5 4 3 4 3 3 2 2 1 2 3 3 3 3 3 3 3 2 2 2 2 2 2 3 3 3 3 3 2
6 6 7 7 7 7 7 6 7 6 5 5 5 4 4 4 3 3 4 3 2 2 2 2 3 3 3 3 3 2 2 2 2 2 2 2 2 2 2 2 3 3 3
6 6 6 6 5 5 5 5 6 6 5 5 5 4 4 4 3 3 3 2 3 2 2 2 2 3 3 3 3 3 2 2 2 2 2 3 2 2 2 2 3 3 4
5 6 6 6 6 5 5 5 5 5 5 5 4 4 4 4 4 4 4 3 3 3 3 2 2 2 2 2 3 3 2 2 2 3 3 3 2 2 2 2 2 2 3
4 5 5 5 5 6 5 5 5 5 5 5 5 5 4 4 5 4 3 3 3 3 3 2 3 3 2 2 2 2 2 2 3 3 3 3 2 2 3 2 2 2 2
3 4 4 4 5 5 5 4 4 4 5 5 6 5 5 5 5 4 3 3 3 3 2 2 2 2 2 2 2 2 2 2 2 2 3 3 3 3 2 3 2 2 2
3 3 4 4 5 5 5 4 4 4 4 5 6 5 6 5 5 4 4 4 3 3 3 3 3 2 2 2 2 2 2 2 2 2 3 3 3 3 3 3 3 3 3
2 2 3 3 4 4 5 5 5 5 5 5 6 5 5 5 5 4 4 4 4 4 3 3 3 3 3 2 2 3 2 2 3 3 3 2 2 2 3 3 2 3 3
1 1 2 3 4 5 5 5 5 5 6 6 6 5 5 5 5 5 4 4 4 3 3 4 3 3 1 1 1 4 3 3 3 3 3 3 4 4 4 3 4 4 5
1 1 1 2 3 4 4 5 5 5 5 5 5 5 5 5 5 5 4 4 4 4 4 4 4 3 2 2 3 3 4 4 4 3 4 4 1 2 3 4 7 6 6
1 1 1 1 1 2 3 4 5 5 5 5 5 5 5 5 5 4 4 4 4 3 3 3 4 3 2 3 3 4 6 5 4 4 4 4 3 3 3 4 4 5 5
1 1 2 1 1 1 2 3 4 4 5 5 5 5 5 4 4 4 4 4 3 3 3 3 3 3 2 2 3 4 5 4 4 4 4 4 3 1 3 5 5 5 4
1 0 0 0 1 1 1 2 3 3 4 3 3 3 4 4 4 4 4 3 3 3 3 3 3 3 2 2 2 4 4 4 4 3 3 3 2 2 3 5 5 5 4
1 1 1 1 1 0 1 2 2 2 2 1 2 2 3 3 3 3 3 3 4 3 3 3 3 3 2 3 3 3 4 3 4 3 2 1 3 3 3 5 5 4 5
1 1 1 2 2 1 1 2 1 1 1 1 2 2 2 3 2 3 3 3 3 3 3 3 3 2 3 2 3 4 4 5 4 3 2 0 1 3 4 4 3 4 6
1 1 1 2 2 1 0 1 1 1 1 1 1 2 2 2 2 3 3 4 4 3 3 3 3 2 2 3 5 5 5 4 4 2 1 2 4 4 5 5 5 6 5
2 2 1 1 2 2 1 1 0 0 1 1 1 2 2 2 2 2 3 3 3 3 3 3 3 2 2 1 2 3 4 5 5 3 3 5 6 6 4 3 4 4 3
2 2 2 2 2 1 1 1 0 1 1 1 2 2 2 2 2 2 1 2 1 2 3 2 2 2 2 1 2 3 2 2 1 2 3 3 3 3 3 2 2 2 2
2 3 3 2 2 1 1 1 0 1 1 2 2 2 2 2 2 2 2 1 1 1 1 2 4 2 1 0 1 2 3 3 2 3 3 2 2 3 2 2 2 2 2
Wind_Direction
177 174 177 174 173 173 175 180 181 170 180 181 188 185 186 196 189 190 181 194 204 201 225 239 193 227 209 232 226 227 203 218 231 243 228 213 212 210 220 237 249 227 231
180 179 180 182 180 174 180 184 186 182 188 179 189 195 210 206 190 195 177 209 208 217 210 218 223 220 204 203 231 236 250 218 210 253 251 225 184 200 214 215 221 246 239
187 184 185 187 185 181 181 182 186 188 192 188 190 189 193 211 198 193 198 211 216 218 231 216 242 233 233 203 221 226 232 241 228 268 286 291 313 287 182 209 220 242 260
190 186 185 186 189 183 178 180 182 186 189 196 201 203 211 217 213 219 206 205 212 219 217 218 229 240 242 228 234 215 238 249 253 217 248 293 323 297 284 202 189 205 243
187 185 185 182 186 182 178 172 174 181 188 199 198 210 220 224 214 205 192 227 207 216 222 221 229 239 249 250 261 242 257 249 260 263 248 244 241 261 281 291 288 232 225
179 182 180 176 179 177 176 170 171 181 190 201 204 215 222 229 227 218 212 216 211 210 218 227 233 238 248 243 243 247 237 261 276 280 269 263 266 271 270 273 269 279 278
178 178 175 175 177 179 179 176 177 186 195 201 207 209 217 222 221 229 219 236 232 218 215 233 233 241 241 243 246 242 263 255 256 266 275 273 272 277 277 279 285 285 271
176 177 176 177 178 179 183 184 182 190 197 204 209 215 218 228 225 229 246 233 246 249 245 229 232 237 242 240 235 243 240 240 248 263 270 267 262 255 264 275 280 276 267
174 175 177 178 178 179 186 189 185 188 195 201 206 211 215 227 233 229 228 231 238 240 226 229 228 233 235 243 240 235 243 237 245 251 249 259 262 272 273 269 273 279 284
172 169 171 174 178 180 182 187 188 189 195 199 210 198 203 206 215 226 218 231 246 251 238 225 222 227 230 232 242 230 212 227 238 258 285 280 274 268 261 258 259 265 275
171 168 170 175 177 180 181 180 184 186 192 194 200 207 197 194 201 210 218 219 226 231 232 230 225 222 222 231 237 251 231 232 245 255 246 255 279 285 277 263 259 262 265
170 169 171 170 175 182 183 179 184 187 190 189 197 201 197 198 200 200 211 216 217 222 219 217 212 216 215 233 242 255 243 234 241 249 249 254 248 258 276 278 272 271 264
175 169 170 177 184 187 186 190 195 196 190 191 199 198 199 201 208 202 202 210 209 217 214 208 212 223 225 232 242 254 252 245 250 253 253 255 258 264 267 267 269 265 253
178 177 181 189 190 195 191 194 198 201 194 197 205 201 205 208 212 209 205 209 210 211 214 212 216 228 230 239 249 243 241 242 246 245 251 257 259 261 262 256 259 269 271
184 185 195 198 202 205 200 200 200 198 195 199 208 206 209 206 212 214 213 212 215 211 209 219 223 232 232 242 254 254 238 247 254 245 241 237 244 289 283 292 284 272 269
200 195 200 206 213 211 204 201 204 202 198 201 205 203 208 204 208 212 212 208 207 209 213 221 227 234 238 105 241 266 251 240 245 250 250 225 208 205 215 246 276 285 273
200 223 248 233 224 218 208 208 206 205 203 203 202 203 207 205 206 215 209 209 208 205 213 222 231 231 194 177 213 247 261 255 256 252 256 267 262 242 253 222 223 238 243
212 215 253 250 237 222 210 216 210 202 204 204 203 204 207 209 203 209 211 212 216 213 217 223 226 227 197 178 208 247 248 252 251 248 249 258 261 279 277 264 256 254 247
206 228 239 225 204 201 196 201 208 199 201 205 205 207 207 207 203 207 207 208 211 214 221 221 224 224 199 174 202 248 248 243 247 249 251 251 245 228 270 257 255 260 258
17 37 133 132 111 127 162 190 203 198 205 210 209 205 206 208 204 205 205 200 207 218 230 224 230 228 218 163 183 251 255 250 252 240 227 211 241 244 261 257 259 260 268
42 66 54 34 39 115 160 188 205 208 209 205 207 208 215 214 211 209 204 206 214 214 230 231 232 225 214 170 170 232 265 270 265 262 250 190 163 217 247 263 263 272 280
45 61 55 24 23 59 165 186 198 199 203 203 200 200 209 232 208 202 204 212 222 213 217 228 242 224 199 193 179 204 241 284 269 272 279 348 160 228 243 248 258 270 268
351 353 34 31 20 16 344 218 203 197 195 183 197 201 203 219 231 217 211 215 215 236 235 230 240 235 216 174 179 198 211 242 255 273 320 252 230 233 229 215 229 244 248
324 318 341 350 356 352 342 328 348 171 197 209 225 210 208 220 206 235 235 242 242 239 238 236 238 238 223 235 209 204 198 206 221 231 201 208 221 232 242 225 218 235 267
281 292 299 302 313 331 338 345 133 219 229 241 247 239 228 219 218 214 252 264 270 297 271 272 265 265 260 347 359 295 274 268 267 257 235 232 220 227 227 236 253 263 258
270 274 279 285 296 315 324 320 277 228 242 243 248 254 239 211 226 208 190 140 249 122 205 267 289 297 329 239 240 250 269 276 263 245 240 249 258 260 261 258 258 262 274